Regional Weather Roundup
Issued by NWS

Home | Current Version | Previous Version | Text Only | Print | Product List | Glossary Off
Versions: 1 2 3 4 5 6 7 8 9 10 11 12 13 14 15 16 17 18 19 20 21 22 23 24 25 26 27 28 29 30 31 32 33 34 35 36 37 38 39 40 41 42 43 44 45 46 47 48 49 50

000
ASUS43 KDTX 251001
RWRMI
MICHIGAN HOURLY REGIONAL WEATHER ROUNDUP
NATIONAL WEATHER SERVICE DETROIT/PONTIAC MI
500 AM EST SUN JAN 25 2015

NOTE: "FAIR" INDICATES FEW OR NO CLOUDS BELOW 12,000 FEET WITH NO
SIGNIFICANT WEATHER AND/OR OBSTRUCTION TO VISIBILITY.

MIZ047>049-052>055-059>063-066>070-074>076-081>083-251100-
SOUTHEAST LOWER MICHIGAN

CITY           SKY/WX    TMP DP  RH WIND       PRES   REMARKS
ADRIAN         CLOUDY    33  31  92 CALM      29.72S FOG
ALMA           CLOUDY    26  19  76 NE7       29.79R WCI  18
ANN ARBOR      CLOUDY    34  33  96 CALM      29.72R FOG
BAD AXE        CLOUDY    21  15  76 N14       29.81R WCI   8
CARO           CLOUDY    24  17  74 NE5G16    29.80R WCI  18
DETROIT CITY   CLOUDY    32  25  75 NE14      29.76R WCI  22
DETROIT        CLOUDY    33  29  85 NE9       29.74R FOG     WCI  25
FLINT          CLOUDY    28  18  66 NE14      29.77R WCI  17
GROSSE ILE     LGT RAIN  34  32  93 N3        29.73R
HILLSDALE      CLOUDY    34  34  99 CALM      29.68F FOG
HOWELL         CLOUDY    29  26  90 NE9       29.73R WCI  20

CITY           SKY/WX    TMP DP  RH WIND       PRES   REMARKS
JACKSON        CLOUDY    33  31  92 NE7       29.71R FOG     WCI  27
LAMBERTVILLE   CLOUDY    34  32  93 CALM      29.72S FOG
LANSING        CLOUDY    28  24  85 NE10      29.76R WCI  19
LAPEER         CLOUDY    25  18  76 NE8       29.78R WCI  16
MASON          CLOUDY    30  27  89 NE7       29.74R WCI  23
MONROE         CLOUDY    34  32  93 CALM      29.71S FOG
MT. CLEMENS    CLOUDY    28  20  74 N15       29.75R WCI  16
PONTIAC        CLOUDY    28  25  88 NE9         N/A  WCI  19
PORT HOPE        N/A     23  14  68 N18       29.80R WCI   9
PORT HURON     CLOUDY    27  19  74 N10       29.78R WCI  17
TRI CITIES     CLOUDY    24  14  65 NE15      29.81R WCI  11
TROY           CLOUDY    31  27  84 NE10      29.77R WCI  22
SAGINAW HB     CLOUDY    25  18  74 N13       29.81R WCI  13
$$
MIZ043>046-050>051-056>058-064>065-071>073-077>080-251100-
SOUTHWEST LOWER MICHIGAN

CITY           SKY/WX    TMP DP  RH WIND       PRES   REMARKS
BATTLE CREEK   CLOUDY    36  31  82 NE9       29.71S HAZE    WCI  29
BENTON HARBOR  CLOUDY    33  32  96 CALM      29.70R FOG
BIG RAPIDS     CLOUDY    22  17  78 NE10      29.78R WCI  11
COLDWATER      CLOUDY    33  32  97 MISG      29.69S FOG
FREMONT        CLOUDY    26  18  72 NE10      29.77R WCI  16
HOLLAND        CLOUDY    34  28  79 NE9       29.74R WCI  27
GRAND RAPIDS   CLOUDY    31  25  78 NE9       29.74R WCI  23
IONIA          CLOUDY    31  28  89 NE10      29.74R WCI  22
KALAMAZOO      CLOUDY    35  31  85 NE3       29.70S
LUDINGTON      MOCLDY    22  14  71 NE8G18    29.83R WCI  12
MARSHALL       CLOUDY    33  31  94 NE5       29.71R WCI  28
MOUNT PLEASANT CLOUDY    22  14  71 N13       29.80R WCI  10
MUSKEGON       CLOUDY    32  26  78 NE12      29.76R WCI  23
SOUTH HAVEN    CLOUDY    36  34  92 NE3       29.71R FOG
$$
MIZ016>042-251100-
NORTHERN LOWER MICHIGAN

CITY           SKY/WX    TMP DP  RH WIND       PRES   REMARKS
ALPENA         PTCLDY    11   5  77 N10       29.87R WCI  -3
BEAVER ISLAND  CLEAR      8   2  76 CALM      29.93R
BELLAIRE       CLEAR     11   5  76 N6        29.90R WCI   2
CADILLAC       PTCLDY    12   9  86 N7        29.78R WCI   2
CHARLEVOIX     CLEAR      9   2  71 NE5       29.93R WCI   1
FRANKFORT      MOCLDY    19  13  77 NE6       29.85R WCI  10
GAYLORD        PTCLDY     6   3  87 VRB5      29.82R WCI  -3
GRAYLING       CLEAR      8   4  85 N7        29.83R WCI  -3
HARBOR SPRINGS CLEAR      5  -1  76 N3        29.90R
HOUGHTON LAKE  PTCLDY    12   6  77 N9        29.81R WCI   0
MANISTEE       MOCLDY    19  10  68 NE10      29.84R WCI   8
OSCODA         CLEAR     15   8  75 N10       29.84R WCI   2
PELLSTON       PTCLDY     4  -3  73 N9        29.92R WCI -10
ROGERS CITY    CLEAR     12   6  77 N12       29.89R WCI  -2
TRAVERSE CITY  PTCLDY    17   9  70 N15       29.87R WCI   2
$$
MIZ007>008-015-251100-
EASTERN UPPER MICHIGAN

CITY           SKY/WX    TMP DP  RH WIND       PRES   REMARKS
KINROSS        PTCLDY    -4  -6  92 NW7       29.93R WCI -18
MACKINAC ISLAN PTCLDY     5   0  79 N9        29.92R WCI  -9
NEWBERRY       CLOUDY     3   1  92 VRB5      29.92R WCI  -6
S. S. MARIE    PTCLDY    -1  -8  72 CALM      29.92R
MUNISING         N/A     18   9  68 NE16      29.94R WCI   3
$$
MIZ004>006-011>014-085-251100-
CENTRAL UPPER MICHIGAN

CITY           SKY/WX    TMP DP  RH WIND       PRES   REMARKS
MANISTIQUE     CLOUDY     8   5  87 CALM      29.94R
ESCANABA       CLOUDY    18   9  68 NE13      29.91R WCI   4
MENOMINEE      CLOUDY    19   9  63 NE16G23   29.89R WCI   5
SAWYER-GWINN   FLURRIES  15   8  75 NE13      29.89R WCI   1
$$
MIZ001>003-009>011-084-251100-
WESTERN UPPER MICHIGAN

CITY           SKY/WX    TMP DP  RH WIND       PRES   REMARKS
IRON MOUNTAIN  LGT SNOW  16   9  74 NE8       29.88R WCI   5
HOUGHTON       CLOUDY    13   5  70 E8        29.94R WCI   2
COPPER HARBOR    N/A     16   9  74 NE14      29.99R WCI   2
IRONWOOD       MOCLDY    14   9  79 NE6       29.88R WCI   5
$$

ABBREVIATIONS USED IN REMARKS
   TC - TEMPERATURE IN CELSIUS
  WCI - WIND CHILL INDEX
   HX - HEAT INDEX
  VSB - VISIBILITY




USA.gov is the U.S. government's official web portal to all federal, state and local government web resources and services.